Lapse_Rate
4.2 4.0 4.1 3.7 3.6 3.1 2.7 2.4 2.2 2.3 2.1 2.1 2.2 2.1 2.0 1.6 1.2 2.1 3.0 4.5 4.0 4.8 4.6 5.6 5.8 5.4 4.6 4.9 4.5 2.5 6.5 6.5 6.5 6.5 6.5 5.5 6.4 5.1 4.6 4.9 4.0 2.9 2.8 3.0 2.1
4.6 4.4 3.9 3.7 3.4 3.3 2.9 2.5 2.2 2.3 2.1 2.2 2.2 2.1 2.1 1.5 1.0 1.8 3.4 4.6 5.1 4.5 4.9 5.7 6.1 5.7 3.7 5.3 3.9 4.5 6.5 6.5 6.4 6.4 6.5 6.1 6.0 5.4 5.9 5.7 5.4 5.0 3.5 2.3 2.7
4.5 4.3 4.1 3.8 3.5 3.2 3.0 2.8 2.4 2.4 2.5 2.4 2.1 2.1 2.1 1.5 3.4 4.1 5.1 4.2 5.1 4.5 5.7 5.6 5.5 5.6 5.6 5.3 5.5 5.6 6.5 6.4 6.2 5.4 5.3 6.0 5.9 5.3 6.0 6.5 4.7 4.4 4.0 3.8 3.8
4.7 4.3 4.1 3.9 3.4 2.8 2.9 2.9 2.7 2.5 2.6 2.5 2.2 2.0 1.9 2.7 6.5 6.2 4.8 4.4 4.7 4.3 5.8 5.7 5.6 5.4 6.1 6.5 5.6 6.4 5.7 5.7 6.0 5.7 5.5 6.2 5.5 5.9 5.2 5.2 4.8 3.6 3.3 3.5 3.3
4.8 4.6 4.1 3.8 3.7 3.1 2.7 2.6 2.3 2.6 2.6 2.4 2.3 2.0 3.1 5.1 3.5 5.3 4.3 4.0 3.6 4.2 5.4 5.9 5.8 5.5 6.5 6.2 6.0 6.5 6.3 5.6 5.6 5.3 5.1 5.6 5.4 5.9 5.0 4.5 2.3 2.2 2.8 2.9 3.0
5.1 4.9 4.5 4.2 3.7 3.2 2.9 2.6 2.3 2.5 2.5 2.5 2.3 2.3 3.9 6.1 5.4 5.3 4.0 3.7 4.6 4.9 5.2 5.6 5.6 4.7 5.5 6.1 6.4 5.9 6.1 5.6 4.7 5.1 4.8 6.1 5.9 5.9 4.8 3.2 2.5 2.5 2.2 2.6 3.4
5.5 5.1 4.8 4.4 4.0 3.9 3.6 3.1 2.4 2.6 2.7 2.6 2.7 3.5 4.1 3.7 5.3 4.8 4.7 5.1 5.3 5.2 5.8 5.7 5.8 5.8 5.2 6.4 5.8 6.0 6.5 6.4 5.8 5.6 6.0 4.8 6.5 6.5 4.3 2.9 2.7 2.4 2.0 2.4 2.9
5.6 5.3 4.7 4.7 4.2 4.0 3.9 3.5 2.7 2.7 2.9 2.9 3.1 3.9 4.0 4.4 5.2 4.8 5.6 5.6 6.0 5.6 6.3 6.2 5.7 5.6 6.0 5.6 5.0 6.5 6.5 6.5 6.5 6.2 6.0 5.9 6.5 6.3 3.7 2.6 2.8 2.1 1.8 2.7 2.6
5.6 5.5 4.9 4.7 4.7 4.2 3.8 3.8 3.0 3.2 3.2 3.3 3.5 4.8 4.4 4.8 5.2 4.8 4.7 6.2 6.4 6.5 6.5 6.4 6.2 5.1 5.0 6.5 6.5 6.5 6.5 6.5 6.5 6.1 6.5 6.5 6.5 6.2 3.3 3.2 2.8 1.6 1.3 2.4 2.9
5.1 5.4 5.2 4.8 4.8 5.0 4.2 4.6 4.1 3.9 3.7 4.5 5.8 5.4 4.2 5.3 6.1 5.4 4.4 5.9 6.7 6.0 6.3 6.0 2.6 6.5 6.5 6.5 6.5 6.5 6.5 6.5 6.5 6.5 6.5 6.5 6.5 6.5 4.8 4.0 3.1 1.7 1.2 1.6 2.5
3.5 5.1 5.2 5.1 5.1 4.7 4.4 4.0 4.5 4.6 4.2 3.6 3.6 4.2 5.4 5.1 6.3 5.7 5.2 6.1 5.6 5.2 6.5 5.8 6.5 6.5 6.5 6.5 6.5 6.5 6.5 6.5 6.5 6.5 6.5 6.5 6.5 6.5 4.7 4.5 3.6 2.0 1.1 1.0 1.6
4.1 4.7 5.2 5.1 5.1 4.6 3.9 3.9 3.9 4.7 5.3 3.4 3.8 4.6 3.8 5.6 6.0 6.1 5.4 5.6 5.5 6.5 6.2 6.5 6.5 6.5 6.5 6.5 6.5 6.5 6.5 6.5 6.5 6.5 6.5 6.5 6.5 6.5 6.1 5.4 3.0 2.9 1.1 0.8 2.0
3.4 2.9 4.8 4.9 4.9 5.0 5.1 3.7 3.5 4.2 5.6 5.4 4.5 4.4 4.2 5.3 5.5 5.0 5.2 4.4 6.2 6.5 6.5 6.5 6.5 6.3 6.5 6.5 6.5 6.5 6.5 6.5 6.5 6.5 6.5 6.5 6.5 6.5 6.4 5.2 3.2 3.4 1.5 1.2 1.0
3.5 2.2 4.6 4.4 5.1 6.6 6.2 4.2 3.7 3.6 6.5 6.5 6.0 4.9 6.2 5.5 6.0 5.0 4.5 5.3 6.3 6.5 6.5 6.5 6.2 6.5 6.5 6.5 6.5 6.5 6.5 6.5 6.5 6.5 6.5 6.5 6.5 6.5 6.5 6.5 6.4 4.4 1.8 1.7 1.3
4.6 2.4 4.1 4.5 6.7 6.8 6.6 4.9 3.6 4.2 6.5 6.5 6.2 5.8 4.7 5.7 5.4 5.4 4.4 5.3 6.5 6.5 6.5 6.5 6.5 6.5 6.5 6.5 6.5 6.5 6.5 6.5 6.5 6.5 6.5 6.5 6.5 6.5 6.5 6.5 6.5 5.5 2.9 1.4 0.7
5.1 4.0 4.2 4.9 4.8 5.2 6.7 5.1 6.2 6.5 6.5 6.5 6.0 6.4 6.4 6.1 5.9 6.2 6.0 6.2 4.6 6.5 6.5 6.5 5.8 6.4 6.5 6.5 6.5 6.5 6.5 6.5 6.5 6.5 6.5 6.5 6.5 6.5 6.5 6.5 6.5 6.0 4.0 2.4 1.8
5.3 5.3 4.4 5.6 5.3 7.3 5.8 5.9 6.5 6.5 6.5 6.5 6.5 6.5 6.5 6.5 6.5 6.5 6.5 6.5 6.5 6.5 6.5 6.5 6.5 6.5 6.2 6.5 6.5 6.5 6.5 6.5 6.5 6.5 6.5 6.5 6.5 6.5 6.5 6.5 6.5 6.3 4.8 2.7 1.8
4.3 5.3 3.7 6.1 7.5 6.7 7.1 6.2 6.5 6.5 6.5 6.5 6.5 6.5 6.5 6.5 6.5 6.5 6.5 6.5 6.5 6.5 6.5 6.5 6.5 6.5 6.5 6.5 6.5 6.5 6.5 6.5 6.5 6.5 6.5 6.5 6.5 6.5 6.5 5.9 4.1 4.5 2.8 2.5 1.9
5.3 4.6 5.6 6.4 7.1 6.6 6.9 6.5 6.5 6.5 6.5 6.5 6.5 6.5 6.5 6.5 6.5 6.5 6.5 6.5 6.5 6.5 6.5 6.5 6.5 6.5 6.5 6.5 6.5 6.5 6.5 6.5 6.5 6.5 6.5 6.5 6.5 6.5 6.5 6.5 6.2 5.0 3.7 3.2 2.6
5.3 5.9 6.2 5.1 6.5 7.7 6.5 6.5 6.5 6.5 6.5 6.5 6.5 6.5 6.5 6.5 6.5 6.5 6.5 6.5 6.5 6.5 6.3 6.5 6.5 6.5 6.5 6.3 6.4 6.5 6.5 6.5 6.5 6.5 6.5 6.5 6.5 6.5 6.5 6.5 6.5 6.4 5.0 3.9 2.6
6.2 7.1 5.7 5.8 6.1 6.7 6.5 6.5 6.5 5.4 5.0 6.5 6.5 6.5 6.5 6.5 6.5 6.5 6.5 6.5 6.5 6.5 6.2 6.5 6.5 6.5 6.5 6.5 6.5 6.5 6.5 6.5 6.5 6.5 6.5 6.5 6.5 6.5 6.5 6.5 6.5 5.9 3.4 2.8 2.1
7.2 6.5 5.6 6.5 6.5 6.5 6.5 6.5 5.7 6.4 5.7 6.5 6.5 6.5 6.5 6.5 6.5 6.5 6.5 6.5 4.8 5.8 6.5 6.5 6.5 6.5 6.5 6.5 6.5 6.5 6.5 6.5 6.5 6.5 6.5 6.5 6.5 6.5 6.5 6.5 5.4 4.6 2.5 1.7 2.0
6.4 6.5 6.3 7.2 6.5 6.5 6.5 6.5 6.4 6.5 6.5 6.5 6.5 6.5 6.5 6.5 6.5 6.5 6.5 5.6 5.2 6.4 6.5 6.5 6.5 6.5 6.5 6.5 6.5 6.5 6.5 6.5 6.5 6.5 6.5 6.5 6.5 6.5 6.4 6.2 4.5 3.8 2.3 0.8 0.5
5.1 6.5 6.4 6.6 6.2 6.5 6.5 6.5 6.5 5.7 6.5 6.3 6.5 6.4 6.5 6.5 6.5 6.5 6.5 6.5 5.2 5.4 4.3 5.7 6.5 6.5 6.5 6.5 6.5 6.5 6.5 6.5 6.5 6.5 6.5 6.5 6.5 6.5 6.5 6.5 5.9 3.3 0.7 1.1 -0.1
7.0 6.6 6.6 6.5 6.5 6.5 6.5 6.5 6.5 6.5 6.3 5.5 6.5 6.5 6.5 6.5 6.5 6.5 6.5 6.5 6.4 6.1 5.8 6.5 6.5 6.5 6.5 6.5 6.5 6.5 6.5 6.5 6.5 6.5 6.5 6.5 6.5 6.5 6.5 6.5 4.2 2.9 2.2 1.1 -0.4
6.9 6.6 6.9 6.5 6.6 6.5 6.5 6.5 6.5 6.5 6.5 6.5 6.5 6.5 6.5 6.5 6.5 6.5 6.5 6.5 6.5 6.5 6.5 6.5 6.5 6.5 6.5 6.5 6.5 6.5 6.5 6.5 6.5 6.5 6.5 6.5 6.5 6.5 4.6 3.4 4.6 2.8 2.3 1.7 0.5
5.7 6.1 6.8 6.5 6.5 6.5 6.5 6.5 6.5 6.5 6.5 5.9 6.4 6.5 6.5 6.5 5.6 5.4 4.0 4.0 5.9 6.5 6.5 6.5 6.5 6.5 6.5 6.5 6.5 6.5 6.5 6.5 6.5 6.5 6.5 6.5 6.5 6.5 6.5 6.3 4.2 2.6 2.0 1.0 0.4
Wind_Speed
15 14 14 12 12 11 10 9 9 10 10 11 11 13 14 15 16 1 5 8 5 6 4 2 1 2 2 2 3 4 4 1 2 1 2 3 1 3 2 3 3 2 3 3 6
17 16 14 13 12 12 11 10 10 10 9 11 12 13 14 14 3 5 12 10 9 8 4 4 2 2 3 2 3 5 3 6 3 2 2 0 2 2 2 1 2 2 3 5 5
16 16 16 14 13 12 11 10 10 9 9 10 12 14 13 11 4 7 1 16 7 12 1 2 3 2 3 2 1 3 4 4 3 3 2 1 2 2 3 4 5 6 6 5 4
18 17 17 16 13 12 12 10 8 8 9 10 11 14 16 3 5 2 5 10 9 7 2 3 3 3 2 2 2 2 4 4 2 3 3 3 1 3 5 5 3 6 5 4 6
20 19 17 16 14 13 12 10 8 7 8 9 11 12 4 2 8 5 3 9 8 5 4 4 3 3 4 3 3 3 2 4 2 3 4 1 5 5 6 4 6 6 6 6 5
20 20 18 17 15 13 12 9 7 7 8 8 9 9 3 3 5 1 7 4 4 4 5 4 5 5 4 3 3 3 2 4 5 5 4 4 4 2 4 6 6 7 5 4 4
22 21 20 18 16 15 12 9 6 6 7 7 7 3 3 11 2 4 2 3 3 4 4 4 4 4 4 2 1 1 4 7 4 3 7 6 6 8 3 5 8 7 5 5 2
24 23 21 19 17 14 11 8 6 5 6 6 4 0 6 5 9 5 3 5 3 4 2 2 3 4 3 4 5 3 4 3 3 3 1 4 8 7 4 9 8 7 5 3 0
26 25 21 20 18 14 10 7 5 5 5 4 1 2 8 8 3 7 8 4 4 1 0 3 3 2 4 4 4 5 2 2 7 5 3 3 6 4 4 7 8 7 6 4 1
25 26 23 20 18 14 10 5 3 2 3 2 2 1 5 5 4 5 5 5 2 5 3 3 4 3 2 3 3 3 2 3 5 3 3 4 10 9 3 6 9 7 7 5 4
25 28 25 22 19 16 10 4 3 1 4 8 7 6 4 4 3 2 4 6 4 5 6 2 3 6 9 7 4 3 3 4 5 6 3 7 8 11 7 5 8 9 8 7 7
25 27 28 24 22 22 8 4 6 4 4 15 3 7 5 3 2 2 6 6 5 6 5 4 6 11 5 3 5 5 4 5 6 4 6 7 12 10 7 9 11 14 10 10 5
29 29 30 27 25 14 12 12 1 1 1 4 14 6 5 7 6 6 10 6 5 6 7 7 5 7 7 5 4 4 5 4 8 4 3 5 8 6 5 5 5 9 8 6 10
29 40 32 28 13 13 14 16 5 4 2 6 5 8 6 6 5 7 7 7 3 12 8 5 5 5 4 5 7 4 7 4 3 2 3 2 5 5 4 7 5 8 10 11 9
25 36 36 34 10 16 7 16 4 2 3 7 5 1 6 10 6 7 6 4 8 6 7 7 6 6 7 10 7 7 5 5 2 2 2 2 0 8 3 7 8 9 9 9 10
22 26 38 14 4 9 10 11 2 4 10 5 7 7 7 4 5 3 4 2 5 5 1 9 3 7 8 2 8 4 5 6 4 3 2 6 6 6 4 6 3 3 9 12 10
24 25 21 13 11 20 16 7 5 6 2 7 6 6 8 7 6 7 8 6 6 6 5 1 3 2 3 4 3 4 6 2 2 0 6 3 3 10 6 6 5 9 12 12 10
19 18 24 14 23 21 11 8 7 11 8 3 5 8 8 6 5 6 8 10 5 5 4 7 4 9 5 7 6 6 7 5 6 4 3 3 5 6 4 4 7 6 9 10 11
11 11 13 13 26 16 16 17 14 6 12 9 6 5 4 6 7 5 8 14 13 9 7 6 6 1 2 3 9 4 4 6 3 2 2 4 7 9 2 2 3 5 9 13 13
2 8 15 17 23 16 19 21 12 5 10 6 7 6 8 10 6 9 9 7 6 10 3 6 2 1 2 3 2 6 6 2 2 3 4 4 5 7 3 3 2 6 9 10 9
3 6 13 18 8 12 24 21 7 7 9 8 7 6 6 8 8 7 9 1 12 9 7 5 3 2 3 6 9 3 3 3 4 4 5 2 5 4 4 4 7 8 9 11 14
3 5 19 20 10 16 20 14 6 7 4 5 5 5 8 10 6 7 11 9 9 8 10 8 5 5 8 2 4 5 6 7 4 5 3 3 6 2 3 4 6 7 7 7 9
4 4 16 23 13 19 9 8 7 7 7 8 5 4 4 8 5 6 7 7 7 9 11 8 4 2 1 2 2 4 5 4 3 3 6 5 5 2 1 5 4 7 7 8 8
0 4 9 10 3 20 19 24 12 5 6 5 6 5 6 5 0 9 8 2 7 8 7 10 5 11 10 3 5 4 6 10 7 3 8 6 6 7 4 4 5 7 8 6 7
4 5 5 13 16 21 21 21 19 8 5 7 3 7 8 5 4 5 4 4 2 5 6 6 8 7 8 4 5 6 5 8 10 18 7 15 10 16 8 9 9 7 5 6 7
3 5 8 14 23 14 24 24 29 7 9 7 10 8 6 8 8 8 8 5 6 3 6 4 4 7 6 7 8 5 7 9 12 6 8 12 10 7 7 5 5 8 6 8 7
6 7 11 22 23 14 26 24 28 8 1 9 11 6 6 7 6 4 4 7 8 9 7 7 6 4 10 5 4 5 7 7 5 6 12 9 17 4 4 7 8 8 7 9 7
Wind_Direction
241 239 243 247 244 254 267 274 280 290 302 312 318 321 320 327 320 81 255 223 192 203 165 120 127 352 53 86 73 125 64 58 281 208 250 354 200 353 35 96 60 8 155 298 121
227 238 241 239 243 251 260 269 278 288 301 310 319 320 321 330 304 260 240 243 245 183 155 154 104 16 44 47 37 80 104 212 214 235 234 20 76 310 1 46 37 57 50 79 100
228 232 238 237 235 246 257 260 273 283 297 309 323 320 319 320 299 245 331 228 215 182 104 108 102 68 43 50 137 146 180 201 236 219 226 229 297 202 190 255 200 190 178 168 163
232 234 236 234 236 240 247 256 266 280 296 312 324 320 316 260 236 288 320 203 181 177 118 111 81 98 115 182 169 154 217 195 259 194 169 227 192 267 192 232 239 175 164 159 178
226 229 230 229 232 232 240 254 265 278 295 311 320 323 327 277 252 293 65 132 125 135 179 179 152 137 183 190 130 174 246 198 205 265 234 219 244 233 241 229 125 118 118 150 177
226 224 223 226 233 235 235 243 253 271 292 312 320 325 249 244 259 238 133 115 144 154 184 184 186 184 138 175 159 196 248 267 272 237 228 204 256 158 262 157 134 132 142 156 176
223 219 219 219 226 231 227 231 241 263 285 304 309 295 255 231 62 57 184 194 179 168 177 224 171 139 153 176 354 26 324 322 244 226 215 154 299 240 191 158 161 156 165 164 166
220 218 211 216 219 225 227 226 226 252 281 286 285 307 250 246 265 262 243 302 228 221 221 191 171 127 146 127 26 41 49 353 279 150 309 126 267 269 206 154 185 187 190 176 42
222 215 212 213 217 215 212 219 225 247 253 264 236 143 265 312 218 230 167 208 159 132 151 113 85 108 43 87 15 11 228 249 313 190 131 167 257 270 135 174 195 199 206 208 206
247 211 203 208 217 209 190 175 193 270 226 237 254 9 271 243 219 177 173 151 155 125 66 70 56 92 56 95 230 200 217 246 253 255 200 211 258 266 230 190 219 197 205 216 208
327 203 199 196 196 184 144 111 74 305 232 191 197 210 287 244 300 188 153 117 99 99 169 180 128 198 205 193 183 198 189 237 264 269 232 241 257 270 251 194 207 206 207 209 209
283 224 195 185 180 172 143 198 207 183 222 234 252 281 269 320 36 223 118 142 146 183 122 52 205 221 190 170 196 213 223 257 279 261 186 272 273 254 218 215 194 197 201 197 194
304 305 185 175 172 160 194 204 100 123 164 252 215 204 220 152 219 241 149 140 152 163 179 175 223 165 175 194 196 239 209 232 240 333 274 337 287 259 281 233 201 199 187 166 186
313 313 175 162 159 182 208 216 258 338 26 266 207 250 181 154 246 204 181 142 182 189 166 217 245 160 162 229 160 233 211 199 234 67 251 68 285 288 268 264 220 188 181 182 180
305 315 169 165 134 187 178 206 136 316 219 235 181 212 166 169 153 217 178 82 165 174 132 228 190 205 201 218 167 226 163 191 219 176 348 238 87 273 341 274 233 207 195 184 185
259 287 169 171 112 170 157 140 162 82 232 215 151 163 132 159 175 99 142 101 158 152 166 205 209 155 206 183 182 126 83 42 48 79 311 238 169 278 230 229 282 182 195 187 180
256 271 204 170 171 153 138 135 139 206 214 190 177 159 154 162 163 149 161 168 161 143 178 226 215 207 148 96 54 91 94 305 323 299 228 151 125 248 266 240 220 208 194 184 178
278 268 263 172 148 148 160 160 188 193 207 125 129 127 170 142 212 160 153 187 238 122 142 174 244 174 194 174 177 187 156 169 228 202 263 103 236 251 204 277 262 218 173 169 179
293 269 202 175 148 159 166 192 201 160 176 143 77 117 190 192 149 136 187 202 194 173 167 159 241 173 189 143 150 194 179 191 96 352 54 241 289 300 317 331 64 135 154 183 188
272 311 186 151 152 170 178 200 197 203 144 139 153 159 172 177 146 162 176 186 187 183 186 201 184 247 143 108 44 160 164 84 16 215 241 272 277 242 297 269 179 182 198 195 191
318 290 154 136 132 187 187 197 161 204 146 141 162 144 168 171 166 184 188 249 189 187 165 141 131 290 102 202 182 148 175 92 131 156 191 253 255 211 257 238 223 226 209 200 198
225 250 152 139 160 201 190 179 165 173 178 140 124 119 159 162 155 171 197 195 196 153 166 190 159 170 202 195 177 164 189 154 147 220 223 165 273 200 258 286 220 248 233 208 205
277 193 157 150 178 191 175 208 178 156 161 153 143 152 161 156 160 182 185 218 144 158 167 169 199 149 214 65 26 192 202 170 120 92 199 165 257 136 233 305 260 238 222 220 202
246 236 153 172 175 178 179 191 191 179 154 142 137 125 119 146 226 184 182 164 157 187 173 142 166 201 215 202 135 187 202 194 168 151 221 228 278 276 253 245 252 257 262 211 208
201 257 189 174 202 179 186 186 188 166 184 148 106 163 152 127 130 139 138 129 112 147 143 150 204 199 214 174 169 195 209 190 197 219 183 252 222 256 247 235 246 240 237 231 206
215 220 189 176 169 189 184 194 185 171 155 176 141 175 153 145 172 181 137 173 175 161 158 165 223 163 214 211 208 226 226 196 216 241 248 252 269 245 242 232 257 248 234 232 225
205 258 185 162 174 186 191 184 193 142 86 153 144 124 126 156 147 167 153 162 156 153 174 160 140 128 231 194 172 269 207 195 192 203 210 223 245 166 255 226 239 246 233 241 238